EW5728 Weather Reports


time (UTC)temp
C
wind
direction
speed
KPH
gust
KPH
rain 1hr
cm
rain 24hr
cm
rain mn
cm
humidity
%
barometer
mb
20260505041515 18 135 6.4 14.5 0.00 0.00 0.00 70 1015.5
20260505041009 18 191 8.0 16.1 0.00 0.00 0.00 70 1015.5
20260505040507 18 160 9.7 16.1 0.00 0.00 0.00 70 1015.5
20260505040007 18 146 4.8 17.7 0.00 0.00 0.00 71 1015.5
20260505035509 18 121 6.4 17.7 0.00 0.00 0.00 70 1015.4
20260505035006 18 207 6.4 16.1 0.00 0.00 0.00 70 1015.5
20260505034505 18 164 8.0 17.7 0.00 0.00 0.00 70 1015.4
20260505034005 18 161 8.0 17.7 0.00 0.00 0.00 70 1015.4
20260505033505 18 136 8.0 16.1 0.00 0.00 0.00 70 1015.5
20260505033005 18 169 8.0 16.1 0.00 0.00 0.00 71 1015.5
20260505032505 18 169 6.4 17.7 0.00 0.00 0.00 72 1015.5
20260505032007 18 149 4.8 17.7 0.00 0.00 0.00 72 1015.4
20260505031507 18 151 8.0 14.5 0.00 0.00 0.00 72 1015.5
20260505031004 17 160 6.4 12.9 0.00 0.00 0.00 73 1015.5
20260505030503 17 158 4.8 0.0 0.00 0.00 0.00 73 1015.4
20260505030003 17 167 3.2 11.3 0.00 0.00 0.00 73 1015.4
20260505025502 17 145 6.4 14.5 0.00 0.00 0.00 72 1015.4
20260505025002 18 163 4.8 14.5 0.00 0.00 0.00 72 1015.4
20260505024502 18 169 4.8 12.9 0.00 0.00 0.00 72 1015.4
20260505024002 18 162 6.4 12.9 0.00 0.00 0.00 71 1015.5
20260505023503 18 199 4.8 12.9 0.00 0.00 0.00 71 1015.4
20260505023008 18 177 4.8 12.9 0.00 0.00 0.00 70 1015.4
20260505022502 18 188 6.4 12.9 0.00 0.00 0.00 70 1015.3
20260505022003 18 166 6.4 16.1 0.00 0.00 0.00 70 1015.3
20260505021502 18 167 4.8 20.9 0.00 0.00 0.00 69 1015.3
20260505021001 18 184 8.0 20.9 0.00 0.00 0.00 68 1015.5
20260505020501 18 187 6.4 24.1 0.00 0.00 0.00 68 1015.5
20260505020105 18 147 9.7 24.1 0.00 0.00 0.00 67 1015.4
20260505015600 18 143 8.0 19.3 0.00 0.00 0.00 66 1015.5
20260505015100 18 176 8.0 19.3 0.00 0.00 0.00 65 1015.5
20260505014612 18 123 4.8 17.7 0.00 0.00 0.00 64 1015.5
20260505014100 19 122 9.7 24.1 0.00 0.00 0.00 62 1015.5
20260505013600 19 141 11.3 24.1 0.00 0.00 0.00 61 1015.5
20260505013059 19 188 9.7 20.9 0.00 0.00 0.00 60 1015.3
20260505012600 19 210 6.4 19.3 0.00 0.00 0.00 59 1015.4
20260505012100 19 159 11.3 19.3 0.00 0.00 0.00 58 1015.3
20260505011607 20 161 8.0 19.3 0.00 0.00 0.00 56 1015.2
20260505011103 20 148 6.4 16.1 0.00 0.00 0.00 54 1015.1
20260505010558 20 188 6.4 19.3 0.00 0.00 0.00 55 1015.1
20260505010100 20 184 8.0 19.3 0.00 0.00 0.00 54 1015.0
20260505005558 20 139 11.3 19.3 0.00 0.00 0.00 54 1015.0
20260505005102 20 148 6.4 14.5 0.00 0.00 0.00 53 1014.9
20260505004558 20 199 8.0 14.5 0.00 0.00 0.00 54 1014.9
20260505004057 20 186 8.0 19.3 0.00 0.00 0.00 54 1014.8
20260505003557 20 182 6.4 19.3 0.00 0.00 0.00 54 1014.9
20260505003057 20 172 8.0 14.5 0.00 0.00 0.00 54 1015.0
20260505002557 20 185 4.8 16.1 0.00 0.00 0.00 54 1015.0
20260505002057 20 173 6.4 16.1 0.00 0.00 0.00 54 1015.0
20260505001558 20 149 6.4 20.9 0.00 0.00 0.00 54 1015.1
20260505001057 20 170 11.3 20.9 0.00 0.00 0.00 53 1014.9
20260505000556 20 200 6.4 20.9 0.00 0.00 0.00 55 1015.0
20260505000115 20 139 11.3 20.9 0.00 0.00 0.00 54 1015.1
20260504235559 20 198 6.4 17.7 0.00 0.00 0.00 54 1015.1
20260504235058 21 190 8.0 17.7 0.00 0.00 0.00 53 1015.0
20260504234555 21 184 9.7 24.1 0.00 0.00 0.00 52 1014.9
20260504234055 21 188 8.0 19.3 0.00 0.00 0.00 51 1015.0
20260504233555 21 169 9.7 19.3 0.00 0.00 0.00 50 1015.0
20260504233108 21 175 8.0 19.3 0.00 0.00 0.00 49 1014.9
20260504232555 21 177 9.7 19.3 0.00 0.00 0.00 48 1014.9
20260504232054 22 200 11.3 20.9 0.00 0.00 0.00 47 1014.7
20260504231554 22 165 11.3 20.9 0.00 0.00 0.00 47 1014.7
20260504231055 22 172 9.7 20.9 0.00 0.00 0.00 47 1014.7
20260504230554 22 244 11.3 25.7 0.00 0.00 0.00 45 1014.7
20260504230054 22 146 11.3 25.7 0.00 0.00 0.00 45 1014.8
20260504225554 22 202 9.7 32.2 0.00 0.00 0.00 45 1014.9
20260504225053 22 186 11.3 32.2 0.00 0.00 0.00 45 1014.8
20260504224601 22 148 11.3 22.5 0.00 0.00 0.00 45 1014.8
20260504224052 22 186 12.9 27.4 0.00 0.00 0.00 44 1014.8
20260504223552 22 164 14.5 29.0 0.00 0.00 0.00 45 1014.8
20260504223117 22 163 16.1 25.7 0.00 0.00 0.00 44 1014.7
20260504222552 22 201 12.9 24.1 0.00 0.00 0.00 44 1014.6
20260504222051 22 205 14.5 30.6 0.00 0.00 0.00 45 1014.7
20260504221552 22 177 16.1 30.6 0.00 0.00 0.00 45 1014.6
20260504221053 22 173 12.9 27.4 0.00 0.00 0.00 45 1014.8
20260504220550 22 184 14.5 27.4 0.00 0.00 0.00 45 1014.7
20260504220050 22 207 9.7 25.7 0.00 0.00 0.00 44 1014.7
20260504215550 22 211 14.5 25.7 0.00 0.00 0.00 44 1014.7
20260504215049 23 190 16.1 25.7 0.00 0.00 0.00 42 1014.8
20260504214551 23 177 11.3 25.7 0.00 0.00 0.00 43 1014.8
20260504214050 23 172 12.9 22.5 0.00 0.00 0.00 42 1014.7
20260504213548 22 204 11.3 27.4 0.00 0.00 0.00 45 1014.9
20260504213055 22 195 17.7 27.4 0.00 0.00 0.00 43 1014.9
20260504212545 22 214 14.5 27.4 0.00 0.00 0.00 45 1015.0
20260504212047 22 181 14.5 27.4 0.00 0.00 0.00 46 1015.0
20260504211544 21 189 19.3 27.4 0.00 0.00 0.00 50 1015.0
20260504211044 22 188 16.1 27.4 0.00 0.00 0.00 48 1015.0
20260504210542 22 193 16.1 27.4 0.00 0.00 0.00 48 1015.0
20260504210043 22 203 19.3 27.4 0.00 0.00 0.00 47 1015.0
20260504205542 22 207 16.1 27.4 0.00 0.00 0.00 44 1015.0
20260504205045 22 165 16.1 27.4 0.00 0.00 0.00 45 1015.1
20260504204546 22 193 14.5 25.7 0.00 0.00 0.00 47 1015.1
20260504204039 22 193 14.5 25.7 0.00 0.00 0.00 46 1015.1
20260504203539 21 204 14.5 25.7 0.00 0.00 0.00 45 1015.1
20260504203046 21 196 12.9 27.4 0.00 0.00 0.00 45 1015.1
20260504202538 21 199 16.1 27.4 0.00 0.00 0.00 46 1015.3
20260504202041 21 201 14.5 24.1 0.00 0.00 0.00 44 1015.4
20260504201537 21 195 14.5 24.1 0.00 0.00 0.00 46 1015.4
20260504201035 21 175 14.5 22.5 0.00 0.00 0.00 45 1015.4
20260504200534 21 212 14.5 22.5 0.00 0.00 0.00 44 1015.5
20260504200034 21 188 16.1 22.5 0.00 0.00 0.00 46 1015.5
20260504195531 21 202 14.5 24.1 0.00 0.00 0.00 46 1015.6
20260504195032 21 200 16.1 24.1 0.00 0.00 0.00 49 1015.6
20260504194531 21 164 14.5 22.5 0.00 0.00 0.00 45 1015.7
20260504194030 21 202 16.1 20.9 0.00 0.00 0.00 47 1015.8
20260504193530 21 174 12.9 24.1 0.00 0.00 0.00 45 1015.8
20260504193029 21 186 12.9 24.1 0.00 0.00 0.00 46 1016.0
20260504192527 20 195 14.5 22.5 0.00 0.00 0.00 49 1016.0
20260504192027 20 191 17.7 22.5 0.00 0.00 0.00 53 1016.1
20260504191526 20 202 16.1 24.1 0.00 0.00 0.00 46 1016.3
20260504191025 20 192 14.5 24.1 0.00 0.00 0.00 47 1016.4
20260504190524 20 193 14.5 24.1 0.00 0.00 0.00 49 1016.4
20260504190023 20 202 14.5 24.1 0.00 0.00 0.00 49 1016.5
20260504185521 20 176 17.7 27.4 0.00 0.00 0.00 48 1016.6
20260504185021 20 199 16.1 27.4 0.00 0.00 0.00 46 1016.6
20260504184519 20 203 16.1 24.1 0.00 0.00 0.00 48 1016.6
20260504184019 20 209 16.1 29.0 0.00 0.00 0.00 48 1016.7
20260504183518 20 193 16.1 29.0 0.00 0.00 0.00 47 1016.8
20260504183018 20 198 19.3 25.7 0.00 0.00 0.00 46 1016.9
20260504182517 20 184 14.5 25.7 0.00 0.00 0.00 45 1016.9
20260504182016 20 208 11.3 27.4 0.00 0.00 0.00 45 1017.0
20260504181516 20 195 16.1 25.7 0.00 0.00 0.00 46 1017.0
20260504181015 19 214 17.7 24.1 0.00 0.00 0.00 47 1017.0
20260504180514 19 190 17.7 24.1 0.00 0.00 0.00 46 1017.1
20260504180016 19 157 14.5 25.7 0.00 0.00 0.00 46 1017.2
20260504175511 19 197 14.5 25.7 0.00 0.00 0.00 46 1017.3
20260504175011 19 173 12.9 24.1 0.00 0.00 0.00 46 1017.3
20260504174509 18 199 17.7 22.5 0.00 0.00 0.00 48 1017.4
20260504174008 18 207 17.7 22.5 0.00 0.00 0.00 48 1017.5
20260504173508 18 191 16.1 19.3 0.00 0.00 0.00 49 1017.5
20260504173006 18 205 12.9 19.3 0.00 0.00 0.00 51 1017.4
20260504172505 18 201 11.3 16.1 0.00 0.00 0.00 51 1017.3
20260504172004 18 210 11.3 16.1 0.00 0.00 0.00 54 1017.5
20260504171504 18 208 12.9 14.5 0.00 0.00 0.00 51 1017.5
20260504171003 18 209 11.3 17.7 0.00 0.00 0.00 48 1017.5
20260504170503 18 198 11.3 17.7 0.00 0.00 0.00 50 1017.5
20260504151038 14 212 11.3 14.5 0.00 0.00 0.00 71 1019.2
20260504150534 14 193 8.0 12.9 0.00 0.00 0.00 71 1019.2
20260504141025 13 225 14.5 17.7 0.00 0.00 0.00 67 1019.3
20260504140524 13 220 16.1 17.7 0.00 0.00 0.00 67 1019.2
20260504130517 13 174 14.5 20.9 0.00 0.00 0.00 69 1019.6
20260504110508 13 203 20.9 30.6 0.00 0.00 0.00 73 1020.1
20260504100604 13 205 22.5 29.0 0.00 0.00 0.00 71 1020.0
20260504100107 13 214 17.7 25.7 0.00 0.00 0.00 75 1020.2
20260504090104 13 212 14.5 24.1 0.00 0.00 0.00 72 1020.0
20260504081550 13 198 12.9 27.4 0.00 0.00 0.00 77 1020.0
20260504081049 13 160 11.3 25.7 0.00 0.00 0.00 78 1019.9
20260504080548 13 193 12.9 19.3 0.00 0.00 0.00 79 1019.9
20260504050525 12 122 0.0 9.7 0.00 0.00 0.00 74 1020.2
20260504050025 12 108 1.6 12.9 0.00 0.00 0.00 72 1020.3
20260504045524 13 146 4.8 17.7 0.00 0.00 0.00 72 1020.4
20260504045024 13 212 9.7 19.3 0.00 0.00 0.00 72 1020.3
20260504044534 13 206 16.1 19.3 0.00 0.00 0.00 72 1020.3
20260504044022 13 173 9.7 20.9 0.00 0.00 0.00 72 1020.4
20260504043521 13 223 14.5 20.9 0.00 0.00 0.00 72 1020.4
20260504043023 12 214 9.7 16.1 0.00 0.00 0.00 76 1020.4
20260504042518 12 203 6.4 12.9 0.00 0.00 0.00 75 1020.3
20260504042019 12 200 6.4 12.9 0.00 0.00 0.00 75 1020.4